CST,Max TemperatureF,Mean TemperatureF,Min TemperatureF,Max Dew PointF,MeanDew PointF,Min DewpointF,Max Humidity, Mean Humidity, Min Humidity, Max Sea Level PressureIn, Mean Sea Level PressureIn, Min Sea Level PressureIn, Max VisibilityMiles, Mean VisibilityMiles, Min VisibilityMiles, Max Wind SpeedMPH, Mean Wind SpeedMPH, Max Gust SpeedMPH,PrecipitationIn, CloudCover, Events, WindDirDegrees
2012-1-1,47,37,27,28,20,9,78,53,27,30.66,30.47,30.11,10,10,10,16,6,26,0.00,0,,307
2012-1-2,39,27,15,12,8,1,74,48,21,30.77,30.65,30.53,10,10,10,14,4,22,0.00,0,,307
2012-1-3,53,35,16,27,19,10,85,59,32,30.51,30.23,30.02,10,10,10,24,7,30,0.00,0,,205
2012-1-4,57,42,26,30,26,23,92,61,30,30.35,30.25,30.13,10,10,10,10,5,15,0.00,0,,235
2012-1-5,64,46,28,35,30,27,92,60,27,30.17,30.01,29.82,10,10,10,15,7,22,0.00,0,,224
2012-1-6,59,44,28,34,27,19,82,53,24,30.11,29.89,29.73,10,10,10,20,6,26,0.00,0,,319
2012-1-7,45,32,19,25,22,17,92,66,40,30.26,30.20,30.12,10,10,10,9,2,10,0.00,0,,34
2012-1-8,46,34,22,28,25,20,88,65,42,30.35,30.31,30.27,10,10,10,8,2,12,0.00,4,,43
2012-1-9,53,35,17,29,23,16,92,65,38,30.33,30.23,30.09,10,10,10,14,3,20,0.00,0,,228
2012-1-10,57,39,20,29,25,19,96,64,32,30.10,29.95,29.76,10,10,8,12,2,16,0.00,0,,215
2012-1-11,43,33,23,33,22,11,96,77,57,30.07,29.88,29.66,10,8,0,23,9,39,T,6,Fog-Snow,348
2012-1-12,27,22,16,10,4,-5,57,45,33,30.15,30.09,30.03,10,9,2,17,8,28,T,5,Snow,311
2012-1-13,40,24,7,20,8,-5,81,53,25,30.20,30.12,29.96,10,10,10,10,3,14,0.00,0,,229
2012-1-14,48,34,20,26,20,15,81,54,26,30.26,30.15,29.94,10,10,10,15,6,22,0.00,1,,288
2012-1-15,66,43,20,32,23,17,84,52,19,30.17,29.91,29.73,10,10,10,23,11,33,0.00,0,,204
2012-1-16,47,36,25,37,29,16,100,75,49,29.93,29.71,29.63,10,7,0,14,5,21,0.01,4,Fog-Rain,307
2012-1-17,28,18,8,15,10,5,84,67,50,30.45,30.31,29.99,10,10,4,17,6,26,T,2,Snow,328
2012-1-18,42,24,6,20,13,4,91,62,33,30.40,30.10,29.86,10,10,10,29,9,36,0.00,0,,218
2012-1-19,34,24,14,20,7,3,75,58,40,30.12,30.04,29.88,10,10,10,22,11,26,0.00,0,,45
2012-1-20,28,21,13,14,8,4,76,66,55,30.26,30.02,29.90,10,10,10,15,9,20,0.00,0,,41
2012-1-21,33,20,6,23,12,4,88,71,54,30.25,30.06,29.70,10,10,7,17,7,24,0.00,3,,129
2012-1-22,60,45,29,39,33,27,89,67,44,29.69,29.52,29.32,10,7,2,24,14,36,0.02,5,Snow,233
2012-1-23,48,35,21,33,24,19,92,65,37,30.06,29.94,29.71,10,10,10,16,7,23,0.00,1,,269
2012-1-24,59,39,19,29,23,18,92,58,23,30.20,30.13,30.07,10,10,10,20,6,24,T,2,Rain,56
2012-1-25,50,36,22,30,28,22,96,71,46,30.18,30.08,29.96,10,10,5,10,1,15,0.00,2,,359
2012-1-26,56,37,18,33,20,15,100,60,20,30.01,29.96,29.93,10,9,5,21,5,32,0.00,0,,284
2012-1-27,50,35,20,28,23,17,81,60,39,30.30,30.00,29.87,10,10,10,17,5,28,0.00,3,,9
2012-1-28,50,33,16,21,13,4,84,50,15,30.43,30.33,30.28,10,10,10,24,9,38,0.00,1,,252
2012-1-29,57,37,17,29,16,9,80,49,18,30.31,30.20,30.05,10,10,10,17,6,23,0.00,3,,213
2012-1-30,70,51,32,41,32,27,75,49,22,30.02,29.89,29.79,10,10,10,24,11,31,0.00,0,,215
2012-1-31,63,46,28,45,35,24,100,65,30,30.11,29.91,29.78,10,10,5,13,5,20,0.00,1,,265